Find Starlink 32813

NORAD ID: 62869 Int'l Des: 2025-022 Owner: SPXS Country: US Constellation: starlink operational
LEOCIRCULAR

現在のビュー

3D地球を読み込み中...

About Starlink 32813

Starlink 32813 (NORAD 62869) is a starlink constellation satellite (v2 mini) launched Feb 2, 2025 by SPXS of US. It operates in LEO, CIRCULAR orbit with a mass of 730.00 kg.

Starlink 32813について

説明を読み込み中...

次回通過

Passes for default location (London). Set your location on the main map for personalized predictions.

高度履歴

Loading altitude history...

軌道要素

1 62869U 25022R 26175.20123950 .00030464 00000-0 90841-3 0 9997
2 62869 53.1596 354.4490 0001325 90.2285 269.8869 15.34423538 78212
Epoch: Jun 24, 2026 • Age: 11 hours

現在のステータス

高度 465.3 km
速度 7.64 km/s
衛星直下点 39.43°N, 122.75°W
打ち上げ日 Feb 2, 2025
運用期間 1.3 years
タイプ internet

技術仕様

分類 Payload
質量 730.00 kg
乾燥質量 700.00 kg
総質量 730.00 kg
長さ 0.30 m
直径 4.10 m
スパン 29.00 m
形状 Box + pan
製造者 SPXS
バスタイプ Starlink V2M
フェーズステータス In Orbit
所有者/国 SPXS/US

Most Searched